Regional Weather Roundup
Issued by NWS

Home | Current Version | Previous Version | Graphics & Text | Print | Product List | Glossary On
Versions: 1 2 3 4 5 6 7 8 9 10 11 12 13 14 15 16 17 18 19 20 21 22 23 24 25 26 27
000
ASUS45 KBOU 171806
RWRCO

WEATHER ROUNDUP FOR COLORADO
NATIONAL WEATHER SERVICE DENVER/BOULDER CO
1200 PM MDT THU APR 17 2014

NOTE: "FAIR" INDICATES FEW OR NO CLOUDS BELOW 12000 FEET WITH NO
SIGNIFICANT WEATHER AND/OR OBSTRUCTIONS TO VISIBILITY.

COZ001>005-013-030-031-171900-
...NORTHWEST COLORADO...

CITY           SKY/WX    TMP DP  RH WIND       PRES   REMARKS
CRAIG          SUNNY     52  18  26 W8        30.12F
HAYDEN         MOSUNNY   48  18  29 W8        30.14F
MEEKER         SUNNY     53  17  24 VRB3      30.11F
MOUNT WERNER   NOT AVBL
STEAMBOAT SPGS MOSUNNY   47   9  21 CALM      30.13F
WALDEN         SUNNY     45  14  29 W15       30.12F
$$

COZ006>008-011-171900-
...WEST CENTRAL VALLEYS...

CITY           SKY/WX    TMP DP  RH WIND       PRES   REMARKS
GRAND JUNCTION SUNNY     58  20  22 CALM      30.11F
MONTROSE       SUNNY     58  20  22 N7        30.13F
EAGLE          MOSUNNY   54  19  26 W6        30.13F
RIFLE          SUNNY     54  18  24 NW8       30.11F
DELTA          SUNNY     61  22  22 CALM      30.11F
NUCLA            N/A     55  23  28 CALM      30.17F
$$

COZ017>023-064>068-171900-
...SOUTHWEST COLORADO...

CITY           SKY/WX    TMP DP  RH WIND       PRES   REMARKS
DURANGO        SUNNY     54  19  25 VRB5      30.16F
CORTEZ         SUNNY     60  23  24 S5G17     30.14F
PAGOSA SPRINGS SUNNY     52  20  28 SW5       30.19F
TELLURIDE      SUNNY     46  18  31 W7        30.21R
WOLF CREEK PAS MOSUNNY   32  19  59 S9G16     30.28S WCI  24
$$

COZ009-010-012-014-032>034-037-058>063-171900-
...CENTRAL COLORADO...

CITY           SKY/WX    TMP DP  RH WIND       PRES   REMARKS
ASPEN          MOSUNNY   50  15  24 VRB7      30.13F
BUENA VISTA    SUNNY     41  30  66 SE5       30.18F
COPPER MTN     MOSUNNY   34  12  40 W18G29    30.22S WCI  23
BERTHOUD PASS  FAIR      25  14  63 NW23G29   30.21R WCI  10
COTTONWOOD PAS SUNNY     37  30  75 E3        30.20F
GUNNISON       SUNNY     46  19  34 SW6       30.21F
KREMMLING      MOSUNNY   50  16  25 W7        30.14S
LEADVILLE      PTSUNNY   38  13  35 NW8G22    30.17S
MONARCH PASS   PTSUNNY   25  21  86 SW18G33   30.35R WCI  11
SALIDA         SUNNY     48  30  50 NE6       30.24F
SUNLIGHT       SUNNY     37  21  52 SW3       30.24S
WILKERSON PASS MOSUNNY   32  25  74 SW9       30.24S HAZE    WCI  24
$$

COZ069>075-171900-
...SAN LUIS VALLEY/SANGRE DE CRISTO MOUNTAINS...

CITY           SKY/WX    TMP DP  RH WIND       PRES   REMARKS
ALAMOSA        MOSUNNY   43  30  60 SE6       30.21F
LA VETA PASS     N/A    N/A N/A N/A W7        30.23S
SAGUACHE       NOT AVBL
$$

COZ035-036-038>040-171900-
...NORTHERN COLORADO FRONT RANGE...

CITY           SKY/WX    TMP DP  RH WIND       PRES   REMARKS
DENVER INTL AP PTSUNNY   58  23  26 CALM      30.07F
DMNS CITY PARK   N/A     58  19  21 N5        30.06F
AURORA         MOSUNNY   57  19  23 S6        30.08F
FRONT RANGE AP MOSUNNY   59  19  21 W7        30.08F
ERIE MUNI ARPT SUNNY     52  33  49 N3        30.08F
BOULDER MUN AP SUNNY     52  32  46 E3        30.07F
CENTENNIAL     PTSUNNY   55  16  21 VRB6      30.07F
BROOMFIELD     PTSUNNY   54  30  40 CALM      30.08
FORT COLLINS   SUNNY     52  34  50 E6        30.10F
LONGMONT       SUNNY     57  32  39 CALM      30.10F
$$

COZ041-046-047-076>085-087-088-171900-
...PIKES PEAK/PALMER DIVIDE AND SOUTHERN FOOTHILLS...

CITY           SKY/WX    TMP DP  RH WIND       PRES   REMARKS
COLO. SPRINGS  CLOUDY    43  36  76 SE15      30.17F
A. F. ACADEMY  PTSUNNY   41  35  76 S9        30.16F
ELLICOTT       NOT AVBL
FALCON         CLOUDY    39  35  83 S10       30.18S
FORT CARSON    CLOUDY    46  35  66 S14       30.15F
LIMON          SUNNY     49  33  54 S22G30    30.15F
MONUMENT HILL  MOSUNNY   45  32  61 S17       30.12F
TRINIDAD       PTSUNNY   47  35  63 VRB6      30.19F
$$

COZ042>045-048>051-090-091-171900-
...NORTHEAST COLORADO...

CITY           SKY/WX    TMP DP  RH WIND       PRES   REMARKS
GREELEY ARPT   SUNNY     52  34  50 W3        30.10F
AKRON          MOSUNNY   53  34  48 S17G26    30.10F
BURLINGTON     CLOUDY    41  34  76 S18       30.21F
WRAY           CLOUDY    43  34  70 SE17      30.20F
STERLING       SUNNY     52  41  66 SE15G22   30.11F
HOLYOKE        CLOUDY    41  34  75 SE18      30.19F
FORT MORGAN    SUNNY     59  30  33 CALM      30.08F
$$

COZ086-089-092>099-171900-
...SOUTHEAST COLORADO...

CITY           SKY/WX    TMP DP  RH WIND       PRES   REMARKS
PUEBLO         MOSUNNY   50  38  63 S10G18    30.17F
LA JUNTA       CLOUDY    48  38  68 S12G20    30.21F
LAMAR          CLOUDY    48  39  71 S7        30.22F
SPRINGFIELD      N/A     42  38  85 S7        30.24F
$$



USA.gov is the U.S. government's official web portal to all federal, state and local government web resources and services.